Simultaneous Nadir Overpasses (SNOs) Predictions

Prediction of SNOs between AQUA and NPP Satellite Orbit:

Table of predicted SNOs for the next 14.0 days since TLE Epoch: 11/2/2013
Index Date (AQUA) Time (AQUA) Lat,Lon (AQUA) SZA (AQUA ) Date (NPP) Time (NPP) Lat,Lon (NPP) SZA (NPP ) Distance(km) Time Diff (sec)
1 11/02/2013 21:03:03 64.81, 85.89 121.48 11/02/2013 21:01:50 64.90, 85.21 121.77 33.95 73
2 11/02/2013 21:49:41 -74.14, -93.19 67.15 11/02/2013 21:49:41 -74.14, -93.20 67.15 0.27 0
3 11/02/2013 22:36:43 80.45, 103.29 105.38 11/02/2013 22:37:56 80.18, 104.41 105.14 37.10 73
4 11/05/2013 13:17:11 72.96,-147.47 114.80 11/05/2013 13:16:13 72.97,-147.45 114.85 0.98 58
5 11/05/2013 14:06:08 -74.56, 23.67 66.78 11/05/2013 14:06:27 -74.56, 23.69 66.80 0.54 19
6 11/08/2013 05:33:40 73.30, -30.95 115.25 11/08/2013 05:33:02 73.30, -30.94 115.28 0.23 38
7 11/08/2013 06:22:39 -74.78, 140.08 66.23 11/08/2013 06:23:18 -74.78, 140.07 66.27 0.14 39
8 11/10/2013 21:50:11 73.47, 85.27 115.82 11/10/2013 21:49:54 73.47, 85.22 115.85 1.85 17
9 11/10/2013 22:39:10 -74.95,-103.62 65.65 11/10/2013 22:40:10 -74.95,-103.69 65.69 2.06 60
10 11/13/2013 13:17:47 -72.00, 30.66 62.06 11/13/2013 13:16:35 -71.99, 30.60 61.96 2.57 72
11 11/13/2013 14:06:32 74.12,-157.44 115.90 11/13/2013 14:06:36 74.12,-157.43 115.90 0.45 4




NCC Satellite Simultaneous Nadir Overpasses (SNOs) Prediction Service
